Location: Indian Hills
(32.9760°N, 85.9450°W)
Time: 15:37:33
(UTC+00:00)

Cosmos 1140 Rocket - Pass Details

Date: 09 December 2019
Orbit: 744 x 768 km, 74.1° (Epoch: 25 January)

Event Time Altitude Azimuth Distance (km) Brightness Sun altitude
Exits shadow 10:33:55 19° 1° (N) 1,744 5.2 -24.7°
Maximum altitude 10:37:27 52° 71° (ENE) 948 4.2 -24.0°
Drops below altitude 10° 10:42:31 10° 147° (SSE) 2,293 6.6 -22.9°
Sets 10:44:57 0° 152° (SSE) 3,218 7.3 -22.4°
